Orbital Elements at Epoch 2459200.5 (2020-Dec-17.0) TDB
Reference: JPL 37 (heliocentric ecliptic J2000)
Element | Value | Uncertainty (1-sigma) | Units |
e | .09413089864777739 | 3.4587e-08 | |
a | 3.128425951724942 | 1.6749e-08 | au |
q | 2.833944405536045 | 1.0625e-07 | au |
i | .5823280737399505 | 3.8558e-06 | deg |
node | 190.2867823531459 | 0.00033457 | deg |
peri | 34.58604019948557 | 0.00033511 | deg |
M | 219.9683283263056 | 2.091e-05 | deg |
tp | 2459986.660138094536 (2023-Feb-11.16013809) | 0.0001199 | TDB |
period | 2021.097415544167 5.53 | 1.6231e-05 4.444e-08 | d yr |
n | .1781210530631807 | 1.4304e-09 | deg/d |
Q | 3.422907497913839 | 1.8325e-08 | au |
|
| | Orbit Determination Parameters
Additional Information
|